This demonstration page uses our WeatherBlox Daily Observations layout. Learn more.

Left ArrowRight Arrow

39.01783, -85.05884

Hourly Observations for November 26, 2022

Temp ( °F °C ) Dew Point ( °F °C ) Humidity (%) Winds ( mph kmh ) Pressure ( in mb ) Visibility ( mi km ) Precip ( " mm )
12:52 am 00:52 Clear 36 2.2 32 0 85 85 Calm 30.20 1023 7 11 0.00 0.00
1:52 am 01:52 Clear 34 1.1 32 0 92 92 Calm 30.20 1023 7 11 0.00 0.00
2:52 am 02:52 Clear with Mist and Fog 30 -1.1 30 -1.1 100 100 S 3 6 30.20 1023 6 10 0.00 0.00
3:52 am 03:52 Clear with Mist and Fog 32 0 32 0 100 100 Calm 30.20 1023 6 10 0.00 0.00
4:52 am 04:52 Clear with Mist and Fog 27 -2.8 27 -2.8 100 100 SSW 3 6 30.21 1023 5 8 0.00 0.00
5:52 am 05:52 Clear with Mist and Fog 32 0 31 -0.6 96 96 Calm 30.19 1022 5 8 0.00 0.00
6:52 am 06:52 Clear with Mist and Fog 29 -1.7 29 -1.7 100 100 SSW 5 7 30.20 1023 5 8 0.00 0.00
7:52 am 07:52 Partly Cloudy with Mist and Fog 31 -0.6 30 -1.1 96 96 Calm 30.21 1023 5 8 0.00 0.00
8:52 am 08:52 Partly Cloudy with Mist and Fog 34 1.1 33 0.6 96 96 S 6 9 30.20 1023 5 8 0.00 0.00
9:52 am 09:52 Mostly Sunny 44 6.7 37 2.8 76 76 SSE 10 17 30.19 1022 7 11 0.00 0.00
10:52 am 10:52 Mostly Sunny 48 8.9 36 2.2 63 63 SSE 9 15 30.17 1022 7 11 0.00 0.00
11:52 am 11:52 Partly Cloudy 51 10.6 36 2.2 56 56 SSE 8 13 30.13 1020 8 13 0.00 0.00
12:52 pm 12:52 Mostly Cloudy 53 11.7 35 1.7 50 50 SE 7 11 30.09 1019 8 13 0.00 0.00
1:52 pm 13:52 Mostly Cloudy 54 12.2 32 0 43 43 SE 7 11 30.05 1018 9 14 0.00 0.00
2:52 pm 14:52 Mostly Cloudy 55 12.8 34 1.1 45 45 SE 7 11 30.04 1017 10 16 0.00 0.00
3:52 pm 15:52 Mostly Cloudy 53 11.7 34 1.1 48 48 SE 8 13 30.01 1016 10 16 0.00 0.00
4:52 pm 16:52 Cloudy 51 10.6 33 0.6 50 50 SE 8 13 30.01 1016 10 16 0.00 0.00
5:52 pm 17:52 Cloudy 48 8.9 33 0.6 56 56 S 6 9 30.00 1016 8 13 0.00 0.00
6:52 pm 18:52 Cloudy 48 8.9 34 1.1 58 58 SE 7 11 29.98 1015 10 16 0.00 0.00
7:52 pm 19:52 Cloudy 48 8.9 33 0.6 56 56 SSE 7 11 29.95 1014 10 16 0.00 0.00
8:52 pm 20:52 Cloudy 50 10 33 0.6 52 52 SE 9 15 29.92 1013 10 16 0.00 0.00
9:52 pm 21:52 Cloudy 50 10 33 0.6 52 52 SE 7 11 29.88 1012 10 16 0.00 0.00
10:52 pm 22:52 Cloudy with Light Rain 47 8.3 41 5 80 80 S 9 15 29.86 1011 10 16 0.02 0.51
11:52 pm 23:52 Cloudy with Light Rain 47 8.3 41 5 80 80 SSE 9 15 29.82 1010 10 16 0.05 1.27

Powered by AerisWeather